Wind_Speed
17 19 22 24 26 26 24 23 22 23 22 21 20 21 20 20 19 18 17 17 18 18 19 19 17 15 13 13 12 12 12 12 13 13 13 13 13 14 14 15 17 19 20
19 21 23 26 28 29 28 26 24 24 24 24 23 23 22 22 22 20 20 19 19 19 19 18 15 13 13 13 13 13 12 12 13 14 15 15 15 16 16 15 17 18 20
23 24 26 28 30 31 30 29 26 25 25 25 25 25 24 24 24 23 22 21 20 20 20 19 16 14 14 14 15 14 14 14 15 15 16 17 17 17 17 17 18 19 20
28 29 30 32 34 35 34 32 30 27 26 25 26 27 26 26 26 26 25 24 23 22 21 20 18 16 16 16 17 16 16 17 17 18 18 18 19 18 19 19 19 20 21
33 34 35 36 38 37 36 34 33 30 28 26 26 27 29 29 28 28 28 27 25 24 23 22 20 18 18 18 19 19 19 18 19 19 19 19 20 20 20 21 21 21 22
36 38 40 40 41 39 37 35 34 32 30 29 27 28 28 30 30 30 30 30 28 26 25 24 22 20 20 19 20 21 21 20 20 20 19 20 21 21 22 22 22 22 22
41 42 43 44 44 41 39 37 36 34 32 31 29 28 28 29 31 32 32 32 30 28 26 24 23 22 21 21 22 22 21 22 22 21 20 20 21 22 22 23 22 21 22
43 44 45 46 46 45 42 41 39 37 35 33 31 29 28 29 30 32 33 33 32 29 27 26 25 24 23 23 22 21 22 24 24 22 21 20 21 22 22 22 22 21 21
44 45 45 45 45 47 46 45 43 41 38 35 33 31 29 30 31 32 33 33 33 31 29 29 28 28 25 24 22 22 24 25 25 23 21 21 20 20 21 21 20 20 21
43 44 44 44 45 46 47 47 45 43 40 37 35 33 32 32 32 33 34 34 34 33 33 32 31 30 27 25 24 24 25 25 25 22 21 20 20 20 20 19 18 18 19
43 43 44 45 45 46 46 46 45 43 40 37 36 35 34 33 33 33 33 35 35 34 34 34 33 31 29 27 26 25 24 24 22 20 19 19 19 19 19 18 17 16 17
43 44 45 46 46 45 45 44 43 42 39 38 37 37 35 34 33 34 33 34 36 36 34 33 33 32 30 28 27 25 23 22 21 19 18 18 19 20 19 18 16 15 15
45 46 47 47 45 44 42 41 40 38 37 36 37 37 36 34 35 35 35 35 36 37 35 32 32 32 31 28 26 24 22 21 20 19 18 18 19 20 20 19 17 15 16
48 48 47 45 43 41 38 36 35 34 33 34 36 38 39 37 36 36 36 37 37 36 35 33 31 28 27 26 24 23 21 20 19 18 18 19 19 20 20 19 18 17 17
48 46 44 41 39 36 33 32 31 30 31 32 33 36 38 38 38 37 38 38 37 35 34 32 28 24 23 24 23 21 20 19 19 19 19 19 20 20 21 20 19 18 18
42 40 38 36 34 32 30 29 28 28 28 29 32 34 36 38 38 38 37 36 34 34 33 32 27 22 22 22 22 21 20 19 19 20 20 20 20 20 20 21 20 20 19
37 36 35 34 32 30 28 26 25 23 23 25 29 33 35 36 37 37 36 34 32 29 27 26 24 21 22 22 22 21 20 19 19 19 19 19 19 19 19 20 20 19 19
36 35 34 33 32 30 28 25 22 21 20 19 19 20 24 28 31 33 33 32 30 26 23 21 22 21 21 21 21 20 18 18 19 19 19 19 19 19 19 20 19 19 19
35 34 34 33 32 30 28 26 24 22 19 18 18 17 17 18 19 21 23 24 22 20 18 19 21 21 21 21 20 19 18 18 19 20 20 19 20 19 19 18 18 18 18
34 34 34 33 33 31 30 29 28 26 23 21 20 19 18 17 16 16 16 16 17 17 19 21 23 22 22 21 20 20 19 19 20 20 21 20 19 18 18 17 16 17 18
32 33 33 32 31 30 30 29 29 28 27 25 24 24 23 22 21 20 19 19 20 21 22 24 25 25 24 23 22 22 21 21 21 22 22 22 21 19 17 16 16 18 19
29 30 30 30 29 29 29 29 29 28 27 27 26 26 26 27 27 27 26 25 25 25 26 26 27 28 27 26 25 25 25 24 24 24 24 23 22 20 18 18 18 18 21
28 29 30 29 29 29 29 29 29 29 27 26 26 26 26 27 29 30 30 30 31 31 31 30 30 30 30 30 29 28 28 28 27 27 26 25 24 22 21 20 20 21 21
27 28 29 29 29 29 29 29 29 28 27 27 26 26 26 26 27 29 30 31 32 33 33 33 33 33 33 32 32 31 31 31 32 31 30 29 28 26 25 23 23 24 24
24 25 27 28 28 28 28 29 28 27 27 27 27 27 26 26 26 27 29 32 33 34 35 35 36 36 36 36 36 35 35 35 35 35 35 33 33 32 31 28 27 27 27
23 24 25 27 28 28 27 26 26 25 25 26 26 26 25 25 25 25 27 30 32 34 35 37 38 38 39 39 39 39 39 38 39 38 39 39 38 37 35 33 32 30 30
Wind_Direction
314 316 320 325 327 326 325 321 313 299 290 284 281 279 280 285 290 290 286 285 285 287 291 296 301 305 309 316 317 314 311 308 304 302 302 301 296 289 282 269 262 257 253
310 311 315 319 321 322 319 318 314 305 291 281 276 272 271 275 281 284 282 280 279 281 286 291 295 301 307 314 317 315 310 307 304 301 300 298 293 287 280 273 267 260 257
309 309 311 315 316 316 315 314 312 310 298 282 275 272 269 270 274 278 279 278 278 278 280 283 286 292 300 307 311 313 310 306 303 298 296 296 293 286 280 273 268 264 261
307 308 309 311 313 312 310 309 309 307 303 289 274 270 269 266 267 272 277 279 279 280 280 279 280 284 292 299 303 306 305 303 302 297 293 291 288 284 278 273 269 266 265
302 304 305 308 310 309 306 305 304 303 300 295 280 271 270 267 265 269 273 276 277 279 280 278 277 280 286 291 298 301 300 299 298 296 290 287 285 282 277 272 269 265 264
295 297 300 302 305 305 303 301 300 299 295 293 287 274 270 268 267 267 269 271 273 275 276 276 275 275 279 287 294 297 296 295 295 296 290 283 281 279 276 272 269 266 263
291 292 294 298 300 301 300 298 296 293 292 290 287 279 273 270 266 264 266 268 271 271 272 272 272 272 278 286 290 293 295 293 292 295 291 284 280 277 274 273 271 268 263
288 290 292 294 296 296 296 295 293 289 286 285 283 281 278 273 266 262 264 267 269 269 268 268 270 271 276 281 283 288 292 290 289 290 289 284 279 276 273 273 272 268 263
287 289 291 292 293 293 293 292 290 286 282 279 278 277 276 273 267 263 263 264 264 266 267 267 269 269 273 276 278 284 288 289 288 287 287 282 277 276 274 273 273 269 266
289 290 290 291 291 290 289 288 287 283 279 274 272 272 273 270 267 264 265 265 263 264 264 265 267 266 269 272 275 281 286 288 288 287 285 279 273 273 275 273 272 271 266
289 290 290 290 289 288 286 285 283 280 276 271 267 266 268 269 265 263 263 264 262 263 263 263 262 263 263 267 271 276 281 284 285 285 283 277 271 269 271 271 272 270 262
289 290 291 290 289 287 285 283 281 279 274 268 264 264 266 267 266 263 262 263 264 264 264 261 259 259 260 263 266 272 276 280 281 281 279 275 269 265 265 264 267 263 259
288 290 291 291 290 288 286 285 283 281 274 267 262 261 263 265 266 264 264 266 267 264 261 258 258 256 255 258 264 270 274 277 277 275 272 270 267 261 259 258 261 258 258
288 290 291 292 291 291 291 290 287 281 274 267 263 262 262 264 266 266 267 268 268 263 257 255 254 252 253 256 263 269 274 274 272 270 267 265 262 258 254 253 256 257 259
287 288 289 291 292 295 296 294 289 282 273 267 263 262 261 263 267 267 269 268 264 257 253 250 245 246 252 257 262 267 269 269 268 267 264 262 260 257 254 253 255 258 262
285 286 287 288 292 296 301 300 295 285 277 269 263 261 262 263 265 267 268 265 256 250 247 244 241 245 250 254 257 260 264 266 266 265 263 261 260 258 256 255 255 260 265
282 284 285 286 289 292 299 302 302 300 289 278 267 262 260 261 262 263 263 254 244 240 239 239 241 246 250 252 253 255 260 262 263 266 264 262 260 259 260 258 256 259 262
280 281 282 284 287 289 292 295 302 304 305 301 292 282 271 266 264 260 252 241 236 237 238 241 244 248 252 253 252 254 258 261 262 265 265 262 261 262 262 261 259 257 257
276 278 279 282 285 286 285 286 290 295 297 298 298 298 292 281 269 260 252 245 242 240 242 247 250 252 254 255 255 256 258 262 263 264 265 265 263 263 262 261 260 258 256
274 275 278 280 283 283 282 282 283 284 285 285 285 286 285 281 278 274 269 264 260 257 256 255 255 254 254 254 256 258 260 261 263 264 265 265 264 264 261 258 258 257 253
275 276 278 280 282 283 282 282 281 281 280 278 276 275 274 273 271 268 265 265 263 261 259 258 256 255 254 254 254 257 260 261 262 263 263 264 262 261 258 252 251 251 248
277 277 278 281 282 283 283 283 282 281 279 277 275 272 269 268 267 266 264 262 260 260 259 257 256 256 256 254 254 255 259 261 261 259 260 261 259 257 254 252 252 252 247
280 281 282 284 285 285 285 285 285 285 282 279 277 273 271 269 266 264 263 261 260 259 259 257 255 254 254 253 252 252 254 257 257 257 256 256 255 253 252 252 253 253 252
283 284 285 285 287 288 289 289 289 289 287 285 282 279 275 271 266 263 260 258 257 256 255 254 253 252 251 250 250 249 249 250 252 253 251 252 252 251 249 250 251 253 254
285 285 286 286 286 287 288 289 290 291 291 291 290 287 284 279 272 266 261 258 255 252 250 249 249 248 247 247 247 247 246 246 246 248 248 250 251 251 251 252 253 253 253
287 287 287 287 287 288 288 289 290 291 292 293 292 292 290 286 281 275 269 263 258 254 251 249 248 247 246 246 246 246 245 244 244 245 247 248 250 252 252 252 253 254 253
Height
5910 5909 5907 5905 5904 5902 5901 5899 5897 5895 5894 5893 5891 5890 5889 5889 5889 5888 5887 5886 5885 5884 5883 5882 5880 5878 5877 5875 5873 5871 5870 5868 5867 5866 5865 5864 5863 5861 5860 5860 5859 5859 5859
5907 5905 5904 5902 5900 5898 5896 5894 5892 5890 5889 5888 5886 5885 5884 5884 5884 5884 5883 5882 5881 5880 5879 5878 5876 5875 5874 5872 5870 5868 5867 5866 5864 5863 5861 5860 5859 5858 5857 5856 5855 5855 5855
5901 5900 5898 5897 5896 5894 5891 5889 5887 5885 5883 5882 5881 5880 5879 5879 5879 5879 5878 5877 5876 5875 5875 5874 5872 5871 5870 5868 5867 5865 5863 5862 5861 5859 5858 5856 5855 5854 5853 5852 5852 5851 5851
5894 5893 5891 5890 5889 5888 5886 5884 5881 5880 5878 5876 5875 5874 5873 5873 5873 5873 5872 5871 5870 5869 5869 5869 5868 5866 5865 5864 5863 5861 5860 5859 5857 5855 5853 5852 5850 5849 5848 5847 5847 5846 5846
5887 5886 5885 5883 5882 5881 5879 5877 5875 5873 5872 5870 5869 5868 5867 5866 5867 5867 5866 5865 5864 5864 5863 5863 5862 5861 5860 5859 5858 5857 5855 5854 5853 5851 5849 5847 5845 5844 5843 5842 5842 5841 5841
5881 5880 5878 5876 5875 5874 5872 5870 5868 5866 5865 5864 5862 5861 5861 5860 5860 5860 5859 5859 5859 5858 5858 5857 5857 5856 5855 5854 5853 5852 5850 5849 5848 5847 5845 5843 5840 5839 5837 5836 5836 5836 5836
5874 5872 5871 5869 5867 5866 5864 5862 5861 5859 5858 5856 5855 5854 5854 5853 5853 5853 5853 5853 5853 5852 5851 5851 5851 5850 5850 5848 5847 5846 5845 5844 5843 5842 5840 5838 5835 5833 5832 5831 5830 5830 5830
5865 5864 5863 5861 5858 5857 5856 5854 5852 5851 5850 5848 5848 5847 5847 5847 5846 5846 5846 5846 5846 5845 5844 5844 5844 5844 5843 5843 5841 5840 5839 5838 5837 5836 5834 5832 5830 5828 5826 5825 5825 5825 5825
5857 5855 5854 5852 5849 5847 5845 5843 5842 5842 5841 5840 5839 5839 5839 5839 5839 5839 5838 5838 5838 5838 5838 5837 5836 5836 5837 5836 5835 5834 5833 5831 5830 5829 5828 5827 5825 5823 5821 5820 5819 5819 5819
5847 5846 5844 5842 5840 5837 5835 5833 5831 5831 5830 5830 5830 5830 5830 5830 5831 5831 5831 5830 5831 5831 5831 5830 5829 5829 5829 5829 5829 5828 5826 5824 5823 5822 5821 5820 5819 5818 5816 5815 5814 5814 5814
5838 5836 5834 5832 5829 5827 5825 5822 5821 5820 5820 5820 5820 5820 5821 5821 5821 5822 5822 5822 5822 5823 5823 5822 5821 5821 5822 5822 5822 5821 5819 5817 5816 5815 5814 5814 5813 5812 5811 5810 5809 5809 5809
5828 5826 5824 5821 5819 5816 5814 5812 5810 5809 5809 5810 5810 5811 5811 5811 5811 5812 5813 5813 5813 5814 5814 5814 5814 5814 5814 5814 5814 5814 5812 5811 5809 5809 5808 5808 5807 5806 5806 5805 5804 5804 5804
5819 5816 5813 5811 5808 5806 5804 5802 5800 5799 5799 5799 5800 5801 5801 5801 5802 5802 5803 5803 5804 5804 5805 5805 5805 5806 5806 5806 5806 5806 5805 5803 5803 5802 5802 5801 5801 5801 5800 5800 5799 5799 5800
5808 5806 5803 5800 5798 5796 5794 5793 5791 5790 5789 5789 5790 5791 5791 5792 5792 5792 5793 5793 5794 5794 5795 5796 5796 5797 5797 5797 5798 5798 5797 5796 5796 5795 5795 5795 5795 5795 5795 5795 5794 5795 5795
5797 5795 5793 5791 5789 5788 5786 5785 5783 5781 5780 5780 5780 5781 5781 5782 5782 5782 5783 5783 5784 5784 5785 5786 5787 5789 5789 5790 5790 5791 5790 5789 5789 5789 5789 5789 5790 5790 5789 5789 5789 5790 5790
5787 5786 5784 5783 5782 5781 5779 5777 5775 5774 5772 5771 5771 5771 5772 5772 5772 5773 5773 5773 5773 5774 5775 5776 5779 5781 5782 5783 5783 5784 5783 5783 5783 5783 5783 5783 5784 5784 5783 5783 5784 5785 5785
5778 5777 5776 5775 5775 5774 5773 5771 5769 5767 5765 5764 5763 5763 5762 5762 5762 5763 5763 5763 5764 5765 5766 5767 5770 5773 5774 5776 5776 5777 5777 5777 5777 5777 5777 5778 5778 5778 5778 5778 5778 5779 5780
5769 5769 5768 5768 5768 5767 5767 5765 5764 5762 5760 5758 5756 5755 5754 5753 5754 5754 5754 5753 5754 5755 5758 5760 5762 5765 5767 5768 5769 5770 5770 5771 5771 5772 5772 5772 5772 5772 5772 5772 5773 5773 5774
5761 5761 5761 5760 5760 5760 5759 5759 5758 5757 5755 5753 5752 5751 5749 5748 5747 5747 5747 5746 5747 5748 5751 5754 5756 5758 5760 5762 5763 5763 5764 5765 5765 5765 5766 5766 5766 5766 5766 5767 5767 5768 5769
5753 5753 5753 5753 5752 5752 5752 5751 5750 5750 5749 5748 5747 5746 5745 5744 5743 5743 5742 5742 5743 5744 5747 5749 5750 5752 5754 5755 5756 5757 5757 5758 5759 5759 5759 5760 5760 5760 5761 5761 5762 5763 5765
5745 5745 5745 5745 5744 5744 5743 5742 5741 5741 5741 5741 5740 5740 5739 5738 5738 5738 5738 5738 5739 5740 5741 5743 5744 5745 5746 5748 5749 5750 5751 5751 5752 5753 5753 5754 5754 5755 5755 5755 5756 5758 5760
5737 5736 5736 5736 5736 5735 5734 5733 5732 5732 5732 5731 5731 5731 5731 5731 5731 5731 5731 5732 5733 5733 5734 5735 5736 5737 5738 5740 5741 5742 5743 5744 5746 5747 5747 5747 5748 5749 5750 5750 5751 5752 5754
5729 5728 5728 5728 5727 5727 5726 5725 5724 5723 5722 5722 5721 5721 5721 5721 5721 5722 5722 5723 5724 5725 5726 5727 5727 5728 5729 5731 5732 5734 5735 5736 5738 5739 5740 5740 5741 5742 5744 5745 5745 5746 5748
5721 5721 5720 5720 5719 5718 5717 5716 5715 5714 5713 5712 5711 5711 5710 5710 5710 5710 5711 5712 5712 5714 5715 5715 5716 5717 5719 5720 5722 5724 5726 5728 5729 5731 5732 5733 5734 5735 5736 5737 5738 5740 5740
5714 5713 5712 5712 5711 5710 5709 5708 5707 5706 5704 5703 5702 5701 5700 5700 5699 5700 5700 5700 5701 5702 5703 5704 5705 5706 5707 5709 5711 5713 5715 5717 5719 5721 5723 5725 5726 5727 5728 5729 5730 5731 5733
5707 5706 5705 5704 5702 5701 5700 5700 5699 5698 5697 5695 5693 5692 5691 5690 5690 5689 5689 5690 5690 5690 5691 5692 5693 5694 5696 5697 5699 5701 5703 5705 5707 5710 5712 5715 5716 5718 5719 5720 5721 5722 5724